SCP
0 0 1 2 2 3 4 2 2 4 4 4 8 16 20 25 34 33 23 17 15 17 32 52 54 41 28 17 12 13 13 10 11 14 15 16 14 10 6 2 0 0 0 0
0 1 1 1 2 3 4 3 3 4 4 4 7 10 13 17 20 18 12 11 10 10 22 42 46 36 23 13 9 10 12 13 15 17 18 19 18 16 11 5 2 1 0 0
0 0 0 0 1 3 4 4 3 4 5 5 5 5 7 9 9 6 4 4 5 4 13 31 38 27 15 8 6 9 15 19 18 18 21 24 25 24 19 10 4 2 0 0
0 0 0 0 1 2 3 3 3 4 6 5 4 5 7 9 8 5 3 2 3 4 12 25 27 18 9 5 5 12 22 26 23 22 26 32 34 31 23 13 5 3 1 1
0 0 0 0 0 1 1 2 3 4 5 4 4 5 7 9 9 7 4 3 5 8 14 18 15 9 5 4 6 15 27 35 36 36 39 43 43 34 22 12 7 6 5 3
0 0 0 0 0 1 1 1 4 6 5 2 2 4 6 7 7 6 5 4 7 10 12 11 8 4 3 3 6 15 29 42 48 50 49 48 43 30 17 11 10 10 8 7
1 1 0 0 0 1 1 1 4 7 5 2 2 4 5 4 4 4 4 5 6 8 8 7 5 4 3 3 7 15 29 43 49 49 45 38 28 18 12 11 11 9 8 7
1 1 1 0 0 1 1 1 2 5 5 4 4 5 4 2 2 2 3 3 4 4 5 5 5 5 5 5 8 16 27 37 38 34 29 21 13 9 8 8 7 7 7 7
1 1 1 0 0 0 0 0 1 2 3 4 4 4 3 1 1 1 2 2 3 3 4 5 6 7 7 8 11 17 23 26 21 15 13 12 9 8 7 6 5 8 11 10
1 1 1 0 0 0 0 1 1 1 3 4 3 3 3 3 2 2 1 2 2 3 5 7 8 8 8 10 12 15 17 15 8 4 4 6 9 9 8 7 9 13 15 16
1 1 1 1 1 1 1 1 1 2 3 4 4 3 2 4 5 3 1 1 1 2 4 7 9 8 7 8 8 9 11 9 6 3 2 3 6 10 12 15 17 19 19 19
2 3 3 2 1 1 1 1 1 2 2 4 5 4 2 3 6 5 2 2 1 1 2 5 7 6 4 4 3 4 5 6 5 4 1 1 6 13 20 24 25 25 25 24
2 3 3 2 2 1 1 1 1 1 2 3 5 5 3 3 5 5 3 3 3 2 2 3 4 3 3 3 3 2 2 3 3 2 1 1 5 13 23 29 30 30 30 29
1 2 2 2 1 1 1 1 1 1 1 2 4 6 4 2 3 3 2 3 5 6 4 4 5 6 7 7 6 4 2 1 1 1 1 1 2 8 17 24 29 30 29 27
1 1 1 1 1 1 0 0 0 0 1 1 3 5 4 2 2 2 1 2 6 8 7 6 8 12 14 14 12 8 4 3 3 2 1 1 1 5 11 17 22 25 24 21
2 3 4 3 2 2 1 1 1 0 0 0 2 3 4 3 2 1 1 1 4 8 9 9 11 15 19 21 19 15 11 9 8 5 2 1 2 4 8 12 16 18 19 20
4 7 8 5 3 3 3 2 1 1 0 1 1 3 3 3 2 2 2 2 2 4 8 11 13 17 22 24 24 21 17 15 13 10 6 3 3 4 6 9 13 17 23 27
5 8 10 6 4 3 3 3 3 2 2 1 1 2 2 2 3 4 4 3 1 2 6 11 14 17 21 23 24 22 18 16 14 13 10 6 3 3 6 12 21 30 36 39
6 9 9 6 3 3 4 5 5 4 4 4 4 3 3 3 4 5 4 3 2 2 4 8 10 14 20 24 24 21 18 15 14 14 13 8 4 4 11 23 36 44 46 45
10 11 10 6 3 4 6 7 5 4 6 7 8 8 7 7 9 10 9 8 8 9 10 10 11 17 29 36 35 29 23 20 19 18 17 12 8 10 20 34 46 48 44 42
14 14 11 7 5 6 9 11 9 8 8 8 9 10 11 13 17 21 24 26 27 25 24 24 25 31 44 56 56 48 42 37 32 27 21 17 17 18 26 40 50 47 42 40
13 12 11 10 9 9 11 13 12 10 8 7 7 8 11 14 20 25 32 38 40 37 36 39 46 53 65 77 78 71 65 56 46 36 27 25 27 26 30 42 48 46 43 41
8 9 10 13 13 10 9 9 8 6 5 4 4 5 7 10 14 18 23 27 29 29 31 38 49 63 77 89 92 88 81 68 52 38 30 30 35 39 41 43 41 39 39 37
6 6 10 13 10 5 4 3 2 2 2 2 2 3 4 5 6 7 9 10 11 12 15 22 34 48 64 79 90 92 87 72 54 41 33 32 39 46 47 42 33 31 33 33
8 8 10 13 9 4 2 1 1 1 1 1 1 1 2 2 3 3 3 3 4 4 6 9 17 26 37 51 70 83 81 72 61 48 37 33 34 38 42 39 30 25 25 26
10 9 11 14 13 8 3 1 1 1 1 1 1 1 1 2 2 2 2 2 3 3 4 6 10 14 20 30 51 70 73 73 67 51 38 31 28 30 34 37 29 19 16 15
Wind_Speed
13 12 11 10 8 9 7 6 2 6 10 4 5 11 11 11 9 8 9 10 10 9 10 9 10 11 11 9 8 6 6 5 3 1 0 0 1 1 1 2 4 2 3 4
13 11 12 10 9 8 7 6 4 8 9 1 5 3 6 8 7 7 8 9 10 10 10 9 9 10 11 10 8 7 6 6 4 2 1 1 1 2 1 1 3 2 3 3
13 7 7 8 8 6 4 6 8 7 5 3 5 0 3 5 7 7 7 8 10 11 12 11 11 11 11 10 10 8 7 7 5 3 2 2 1 2 1 1 1 3 2 2
10 8 8 8 6 9 2 6 7 5 3 1 1 3 5 6 7 8 9 9 10 11 12 11 11 11 11 11 10 8 8 6 5 4 3 2 2 2 2 1 1 2 1 1
11 9 9 8 6 8 7 5 8 12 10 5 3 4 4 9 8 10 11 11 11 13 13 13 12 11 11 10 10 9 8 7 5 4 3 3 3 2 2 3 2 1 3 3
13 11 9 6 4 5 10 7 7 10 6 4 10 5 5 7 10 12 13 13 12 13 13 12 12 9 8 8 8 9 9 7 6 5 4 3 3 2 3 3 3 3 2 1
8 10 8 7 5 3 7 9 2 2 1 7 13 4 6 8 10 11 13 13 12 12 12 12 11 10 8 8 7 7 10 8 7 6 5 3 2 2 4 4 4 3 2 1
5 5 7 8 7 3 7 9 7 5 3 3 6 5 9 10 10 11 12 13 13 13 12 12 12 10 8 8 7 7 8 8 6 5 4 3 2 2 3 1 2 3 2 2
6 4 7 7 5 6 7 7 9 9 7 3 2 7 12 11 11 10 12 13 13 12 13 12 12 11 9 8 7 7 7 7 5 4 4 4 4 4 3 3 3 4 3 3
8 10 8 2 6 6 7 9 7 6 6 2 3 3 3 8 11 11 11 12 12 12 11 12 11 11 9 8 7 7 7 6 4 4 4 4 5 5 5 4 4 3 4 4
7 8 9 4 5 7 7 7 5 6 7 7 2 0 6 8 9 11 12 12 12 13 13 11 10 9 9 9 9 7 7 6 5 4 3 2 2 3 3 4 5 5 5 4
5 6 9 7 10 10 10 8 5 5 5 7 4 3 2 2 5 7 8 10 10 10 9 10 10 9 8 9 9 9 8 7 6 6 5 5 4 4 4 5 5 4 4 5
6 5 8 5 10 12 12 9 7 5 5 6 6 1 2 2 2 4 4 6 7 8 7 7 9 9 8 8 8 9 9 8 7 7 6 6 6 5 5 4 4 4 4 4
4 7 11 10 7 9 11 10 8 7 6 6 5 3 4 3 2 3 5 5 5 7 6 6 7 8 7 7 7 6 7 7 7 6 6 5 5 5 4 4 4 4 4 5
4 9 12 14 13 12 11 11 8 7 7 8 6 5 2 1 1 1 2 4 5 6 7 7 7 8 7 7 7 6 6 6 6 5 5 5 5 5 4 4 4 4 5 6
3 7 11 15 16 13 13 11 9 7 6 6 5 3 4 3 2 1 1 1 4 5 7 8 9 10 9 8 8 8 7 7 7 6 6 5 4 4 4 4 4 5 5 5
8 9 11 13 12 10 11 8 10 6 5 5 3 2 2 2 2 2 3 4 3 5 6 7 9 10 10 10 9 9 8 8 8 8 7 6 5 5 5 5 4 4 4 5
7 7 7 12 12 13 3 4 7 6 4 4 4 3 3 3 2 1 3 4 3 2 3 5 7 9 11 11 11 9 10 9 9 9 8 7 6 6 4 4 4 4 4 5
7 7 9 10 12 9 4 3 6 7 7 10 8 8 8 8 5 6 7 4 2 3 2 3 5 8 10 11 11 11 10 10 10 10 8 7 6 5 4 4 4 4 4 5
6 6 9 11 13 11 2 4 4 4 1 10 11 10 10 10 6 4 7 6 5 3 2 1 4 5 6 8 9 10 11 10 10 9 8 7 6 5 5 4 4 5 4 5
7 9 12 11 10 3 8 4 2 0 2 8 8 9 11 10 9 9 10 9 8 6 4 2 1 2 3 5 7 8 8 8 7 6 6 6 6 6 6 5 5 5 6 6
13 11 11 8 6 1 7 8 5 3 4 8 10 11 11 10 11 12 12 12 12 11 10 8 4 2 1 2 4 5 5 4 4 5 6 6 6 7 6 6 6 6 6 7
7 4 2 1 3 7 7 6 3 4 7 9 11 12 11 12 12 14 14 13 13 14 13 12 10 7 5 2 1 2 3 3 3 4 5 5 6 6 5 6 7 7 6 8
4 5 4 4 10 10 8 8 7 8 9 10 11 12 13 13 13 13 13 13 13 13 12 12 12 10 8 6 4 2 1 2 3 4 5 5 6 7 7 6 7 7 7 7
2 3 3 5 10 11 9 8 9 10 11 11 12 13 13 13 13 12 11 12 11 11 11 11 10 9 9 7 6 4 4 2 3 4 5 6 8 8 7 8 8 9 8 8
6 4 3 4 6 8 8 7 9 10 10 11 11 12 13 13 12 12 11 10 10 10 10 10 10 10 10 8 6 5 3 3 4 6 6 7 7 7 8 8 9 14 15 15
Wind_Direction
256 249 274 286 294 306 339 35 15 268 269 286 130 144 173 184 186 174 159 152 151 148 141 142 144 145 143 147 149 154 156 150 175 176 189 86 59 354 29 114 108 66 33 12
259 261 266 290 306 316 5 13 262 259 264 259 77 111 165 167 178 168 157 159 156 147 145 155 164 159 158 159 159 165 164 163 188 167 159 188 254 280 270 81 127 98 51 356
287 291 298 298 312 319 40 285 261 242 227 127 96 179 210 179 160 160 165 166 158 158 160 169 178 171 171 170 175 180 176 173 185 182 211 239 200 257 275 50 87 82 41 346
298 304 298 298 296 290 244 244 282 310 317 20 162 227 219 187 171 168 169 172 172 168 170 177 183 183 182 179 181 178 169 173 178 191 235 274 284 295 319 305 91 83 287 261
286 287 291 294 301 311 331 337 12 19 2 3 281 249 180 174 179 182 178 180 180 175 179 182 187 186 186 184 181 172 167 172 178 195 222 245 284 321 355 10 6 329 261 222
288 299 290 294 291 349 328 326 38 37 16 325 257 239 153 176 181 179 177 180 183 181 182 180 186 180 184 184 180 168 162 170 179 195 221 230 264 302 317 318 306 292 282 244
294 289 288 286 274 67 302 299 285 92 164 241 243 226 145 159 164 167 171 174 180 181 182 179 185 185 186 187 184 169 159 168 180 196 212 220 229 261 258 251 264 266 294 324
295 297 267 260 282 278 257 280 304 310 243 205 224 148 136 143 146 156 163 167 177 182 186 187 189 189 186 189 185 172 157 161 176 192 193 193 215 254 269 266 331 322 309 307
297 274 232 252 298 299 292 300 316 306 318 28 351 103 119 136 147 157 163 168 179 185 186 189 188 187 185 186 172 157 144 154 172 189 177 181 204 234 279 313 275 261 257 277
302 309 303 244 274 251 282 309 316 320 322 355 34 23 149 168 165 169 175 177 181 185 191 191 186 183 178 166 146 142 142 156 171 192 203 213 192 208 222 239 266 295 298 285
292 300 300 317 306 297 263 268 302 316 328 332 60 292 191 192 178 178 184 184 186 189 193 189 180 173 160 151 146 146 148 160 177 198 205 238 233 242 244 239 239 244 251 263
309 297 304 338 346 333 303 287 273 289 321 311 327 111 144 172 167 175 182 179 183 187 191 180 166 153 154 160 158 159 166 175 183 190 192 201 219 232 245 254 252 250 251 253
346 314 297 338 4 331 303 297 283 277 282 286 306 96 226 252 199 163 163 164 170 174 183 174 156 153 161 167 168 169 177 184 185 184 186 198 210 224 232 244 254 257 258 259
293 281 288 290 247 237 251 259 260 263 274 287 296 286 240 231 199 163 162 172 183 170 169 170 151 150 161 166 166 172 180 182 183 180 187 199 209 224 235 244 250 254 256 257
280 280 288 293 284 267 264 265 262 261 270 281 294 292 325 63 105 134 169 177 186 175 176 174 164 159 165 170 171 178 184 181 182 181 194 202 205 215 226 240 248 253 259 266
273 283 294 290 289 298 290 285 285 278 287 290 291 321 48 53 49 33 338 235 200 190 192 186 177 173 177 182 183 186 190 184 177 190 204 205 206 218 228 236 244 248 251 259
272 273 277 283 297 300 287 312 306 280 265 279 300 10 17 359 37 7 321 287 245 212 206 195 184 181 182 186 187 191 190 187 185 193 204 205 205 218 227 245 254 261 267 268
263 263 274 279 283 279 292 335 317 320 333 346 354 10 23 21 47 336 293 291 293 275 234 201 189 184 184 187 189 191 191 191 194 196 202 204 206 216 220 231 248 256 259 262
273 253 260 273 277 272 291 355 358 355 354 5 18 22 18 10 3 37 24 351 318 282 257 202 203 205 191 191 188 187 196 194 199 202 201 203 203 209 218 235 246 253 256 260
277 255 250 260 274 292 337 148 200 232 8 11 23 9 357 352 345 27 19 358 343 330 325 230 224 222 193 187 184 186 197 199 203 203 197 194 191 197 212 228 237 247 252 260
251 248 247 261 277 339 41 65 189 189 32 347 7 2 0 8 357 352 354 360 2 354 345 329 258 234 209 183 181 190 196 201 200 197 194 189 186 193 206 220 226 233 245 255
232 233 241 251 271 122 23 30 42 42 16 8 11 14 12 10 6 8 11 14 13 9 3 359 0 334 296 162 172 191 203 202 194 195 195 193 191 211 215 212 222 230 240 253
268 295 309 351 105 116 105 103 83 64 46 30 26 24 24 24 25 26 26 23 21 18 14 10 9 5 5 19 138 210 214 208 211 207 207 208 207 212 219 223 233 237 237 247
321 355 339 77 109 116 111 113 94 72 59 49 42 38 37 35 35 33 29 25 24 21 17 15 9 6 6 3 3 346 282 221 222 227 223 226 228 229 228 229 238 241 243 247
271 199 228 125 124 114 83 78 80 73 64 55 49 45 41 38 36 35 33 26 21 20 16 14 9 2 359 1 356 356 354 337 277 260 255 255 251 246 241 236 236 239 242 243
12 21 2 86 113 107 106 88 79 77 70 63 54 47 41 34 29 28 25 20 14 13 11 7 3 358 353 351 350 349 342 318 293 279 268 264 262 256 249 246 245 233 234 240